Home   Weather   Charlotte Amalie   Past weeks

Flag for US Virgin Islands Past Weather in Charlotte Amalie, US Virgin Islands — Yesterday and Last 2 Weeks

Now
89 °F

Scattered clouds.


Feels Like: 98 °F
Forecast: 80 / 83 °F
Wind: 12 mph from Southeast

Location: Cyril E. King International Airport

Current Time: May 26, 2017 at 3:04:33 pm

Latest Report: May 26, 2017 at 1:53 pm


Visibility: 10 mi

Pressure: 30.03 "Hg

Humidity: 61%

Dew Point: 74 °F

Location of Charlotte AmalieLocation

Past Weather in Charlotte Amalie — Graph

°F

Charlotte Amalie Temperature Yesterday

Maximum temperature yesterday: 89 °F (at 8:53 am)
Minimum temperature yesterday: 81 °F (at 3:53 am)
Average temperature yesterday: 84 °F

High & Low Weather Summary for the Past Weeks

 TemperatureHumidityPressure
High89 °F (May 17, 10:53 am)100% (May 11, 9:53 pm)30.10 "Hg (May 11, 9:53 pm)
Low73 °F (May 12, 2:53 am)53% (May 19, 9:53 am)29.89 "Hg (May 11, 4:53 pm)
Average83 °F78%30.01 "Hg
* Reported May 11 1:53 pm — May 26 1:53 pm, Charlotte Amalie. Weather by CustomWeather, © 2017

Note: Actual official high and low records may vary slightly from our data, if they occured in-between our weather recording intervals... More about our weather records

Advertising

Charlotte Amalie Weather History for the Previous 24 Hours

Scroll right to see more
 ConditionsComfort  
Time TempWeatherWind HumidityBarometerVisibility
1:53 pm
Fri, May 26
89 °FScattered clouds.12 mph61%30.03 "Hg10 mi
12:53 pm87 °FBroken clouds.13 mph63%30.05 "Hg10 mi
9:53 am84 °FScattered clouds.12 mph77%30.08 "Hg10 mi
8:53 am86 °FScattered clouds.8 mph67%30.07 "Hg10 mi
7:53 am86 °FSunny.7 mph67%30.06 "Hg10 mi
6:53 am83 °FPassing clouds.8 mph77%30.05 "Hg10 mi
5:53 am81 °FSunny.7 mph79%30.03 "Hg10 mi
3:53 am82 °FClear.9 mph74%30.01 "Hg10 mi
2:53 am81 °FPassing clouds.8 mph77%30.01 "Hg10 mi
1:53 am81 °FLow clouds.7 mph74%30.02 "Hg10 mi
12:53 am82 °FLow clouds.8 mph72%30.03 "Hg10 mi
12:16 am82 °FLow clouds.7 mph72%30.05 "Hg10 mi
11:53 pm
Thu, May 25
82 °FOvercast.9 mph72%30.05 "Hg10 mi
11:00 pm82 °FOvercast.7 mph72%30.06 "Hg10 mi
9:53 pm82 °FPassing clouds.8 mph70%30.06 "Hg10 mi
9:01 pm82 °FPassing clouds.6 mph72%30.05 "Hg10 mi
8:49 pm82 °FOvercast.8 mph70%30.05 "Hg10 mi
8:00 pm83 °FOvercast.9 mph72%30.04 "Hg10 mi
7:53 pm83 °FPassing clouds.10 mph72%30.04 "Hg10 mi
6:53 pm84 °FPassing clouds.13 mph67%30.02 "Hg10 mi
5:53 pm87 °FScattered clouds.13 mph59%30.01 "Hg10 mi
4:53 pm88 °FMore clouds than sun.10 mph61%30.00 "Hg10 mi
3:53 pm88 °FScattered clouds.13 mph63%30.01 "Hg10 mi
Weather by CustomWeather, © 2017

See weather overviewHow to use our weather pages